Location: Campillo
(40.8621°N, 4.2488°W)
Time: 14:36:37
(UTC+00:00)

Cosmos 1933 Rocket - Pass Details

Date: 30 September 2021
Orbit: 607 x 629 km, 82.5° (Epoch: 19 October)

Event Time Altitude Azimuth Distance (km) Brightness Sun altitude
Rises 02:48:37 0° 4° (N) 2,905 7.5 -37.4°
Reaches altitude 10° 02:51:09 10° 17° (NNE) 1,998 6.7 -37.0°
Enters shadow 02:51:32 12° 20° (NNE) 1,877 6.5 -37.0°
